Flag for U.S.A. Weather past 2 weeks in Stockton, California, U.S.A.

Now
46 °F

Partly cloudy.


Feels Like: 44 °F
Forecast: 47 / 59 °F
Wind: 5 mph from Southwest

Location: Stockton Metropolitan Airport

Current Time: Feb 28, 2015 at 4:29:33 AM

Latest Report: Feb 28, 2015 at 3:55 AM


Visibility: 10 mi

Pressure: 29.71 "Hg

Humidity: 83%

Dew point: 41 °F

Location of StocktonLocation

Historic Weather in Stockton — Graph

°F

Stockton temperature yesterday

Maximum temperature yesterday: 67 °F (at 12:55 PM)
Minimum temperature yesterday: 47 °F (at 3:55 AM)
Average temperature yesterday: 55 °F

Past Weeks' High & Low Weather Summary

 TemperatureHumidityPressure
High75 °F (Feb 14, 3:55 PM)100% (Feb 13, 3:02 AM)30.35 "Hg (Feb 13, 3:02 AM)
Low35 °F (Feb 24, 2:55 AM)19% (Feb 23, 3:55 PM)29.70 "Hg (Feb 27, 5:55 PM)
Average54 °F76%30.03 "Hg
* Reported Feb 13 2:55 AM — Feb 28 2:55 AM, Stockton, Weather by CustomWeather, © 2015

Note: Actual official high and low records may vary slightly from our data, if they occured in-between our weather recording intervals... More about our weather records

Advertising

Stockton weather history for previous 24 hours

 ConditionsComfort  
Time TempWeatherWind HumidityBarometerVisibility
2:55 AM
Sat, Feb 28
47 °FPassing clouds.6 mph80%29.71 "Hg10 mi
1:55 AM49 °FPassing clouds.5 mph80%29.72 "Hg10 mi
12:55 AM51 °FMostly cloudy.10 mph71%29.71 "Hg10 mi
11:55 PM
Fri, Feb 27
48 °FPassing clouds.7 mph80%29.71 "Hg10 mi
10:55 PM49 °FClear.12 mph77%29.71 "Hg10 mi
9:55 PM51 °FClear.12 mph74%29.72 "Hg10 mi
8:55 PM51 °FClear.15 mph74%29.72 "Hg10 mi
7:55 PM53 °FClear.16 mph72%29.71 "Hg10 mi
6:55 PM54 °FClear.16 mph69%29.71 "Hg10 mi
5:55 PM56 °FSunny.15 mph65%29.70 "Hg10 mi
4:55 PM60 °FSunny.23 mph56%29.71 "Hg10 mi
3:55 PM61 °FPassing clouds.26 mph54%29.72 "Hg10 mi
2:55 PM66 °FPassing clouds.22 mph49%29.72 "Hg10 mi
1:55 PM64 °FPartly sunny.16 mph49%29.74 "Hg10 mi
12:55 PM67 °FPassing clouds.15 mph44%29.76 "Hg10 mi
11:55 AM64 °FMostly cloudy.15 mph52%29.80 "Hg10 mi
10:55 AM63 °FBroken clouds.13 mph56%29.83 "Hg10 mi
9:55 AM62 °FPassing clouds.12 mph60%29.84 "Hg10 mi
8:55 AM59 °FSunny.13 mph69%29.84 "Hg10 mi
7:55 AM52 °FSunny.5 mph83%29.85 "Hg10 mi
6:55 AM48 °FSunny.5 mph86%29.84 "Hg10 mi
5:55 AM48 °FClear.5 mph89%29.84 "Hg10 mi
4:55 AM47 °FClear.No wind90%29.85 "Hg10 mi
Weather by CustomWeather, © 2015

See weather overviewHow to use our weather pages